This is the latest recevied weather packets stored in our database for station/object KK4MOR. If no packets are shown the sender has not sent any weather packets the latest 1 day(s).
| Time | Temp. | Humidity | Pressure | Rain* | Wind** | Luminosity | Snow |
|---|---|---|---|---|---|---|---|
| 1778007651 | 20.56° C | 57% | 1008.9 hPa | 0 mm | 0 m/s | - | - |
| 1778006752 | 20.56° C | 58% | 1009.6 hPa | 0 mm | 0 m/s | - | - |
| 1778005849 | 20.56° C | 59% | 1009.9 hPa | 0 mm | 0 m/s | - | - |
| 1778004951 | 20.56° C | 59% | 1010.2 hPa | 0 mm | 0 m/s | - | - |
| 1778004046 | 20.56° C | 59% | 1010.4 hPa | 0 mm | 0 m/s | - | - |
| 1778003153 | 20.56° C | 61% | 1010.6 hPa | 0 mm | 0 m/s | - | - |
| 1778002243 | 20° C | 62% | 1010.6 hPa | 0 mm | 0 m/s | - | - |
| 1778001343 | 20° C | 62% | 1010.8 hPa | 0 mm | 0 m/s | - | - |
| 1778000442 | 20.56° C | 63% | 1011 hPa | 0 mm | 0 m/s | - | - |
| 1777999547 | 20.56° C | 64% | 1011.1 hPa | 0 mm | 0 m/s | - | - |
| 1777998650 | 20.56° C | 64% | 1011.4 hPa | 0 mm | 0 m/s | - | - |
| 1777997740 | 20° C | 66% | 1011.5 hPa | 0 mm | 0 m/s | - | - |
| 1777996837 | 20° C | 66% | 1011.5 hPa | 0 mm | 0 m/s | - | - |
| 1777995956 | 20° C | 65% | 1011.5 hPa | 0 mm | 0 m/s | - | - |
| 1777995034 | 19.44° C | 67% | 1011.4 hPa | 0 mm | 0 m/s | - | - |
| 1777994131 | 19.44° C | 67% | 1011.3 hPa | 0 mm | 0 m/s | - | - |
| 1777993229 | 18.89° C | 68% | 1011.5 hPa | 0 mm | 0.45 m/s, 161° | - | - |
| 1777992329 | 18.33° C | 69% | 1011.4 hPa | 0 mm | 0 m/s | - | - |
| 1777991430 | 18.33° C | 70% | 1011.1 hPa | 0 mm | 0 m/s | - | - |
| 1777990522 | 17.78° C | 73% | 1011.2 hPa | 0 mm | 0 m/s | - | - |
| 1777989622 | 17.22° C | 74% | 1010.8 hPa | 0 mm | 0 m/s | - | - |
| 1777988716 | 16.67° C | 73% | 1010.9 hPa | 0 mm | 0 m/s | - | - |
| 1777987832 | 16.67° C | 73% | 1011 hPa | 0 mm | 0 m/s | - | - |
| 1777986912 | 16.11° C | 74% | 1010.9 hPa | 0 mm | 0 m/s | - | - |
| 1777986021 | 15.56° C | 74% | 1011 hPa | 0 mm | 0 m/s | - | - |
* Rain latest hour (hover to see other rain measurements)
** Current wind speed in m/s (hover to see current wind gust speed)